Location: Friaudour
(46.0460°N, 1.2873°E)
Time: 04:41:58
(UTC+00:00)

SL-16 R/B - Pass Details

Date: 14 July 2020
Orbit: 985 x 1006 km, 99.5° (Epoch: 06 August)

Event Time Altitude Azimuth Distance (km) Brightness Sun altitude
Exits shadow 00:11:55 - 117° (ESE) 2,933 4.8 -22.3°
Reaches altitude 10° 00:12:26 10° 115° (ESE) 2,772 4.7 -22.3°
Maximum altitude 00:17:33 28° 59° (ENE) 1,797 4.2 -22.2°
Drops below altitude 10° 00:22:43 10° 4° (N) 2,793 6.0 -22.1°
Sets 00:25:32 0° 353° (N) 3,748 6.9 -22.1°
